Regional Weather Roundup
Issued by NWS

Home | Current Version | Previous Version | Graphics & Text | Print | Product List | Glossary On
Versions: 1 2 3 4 5 6 7 8 9 10 11 12 13 14 15 16 17 18 19 20 21 22 23 24 25 26 27 28 29 30 31 32 33 34 35 36 37 38 39 40 41 42 43 44 45 46 47 48 49 50
000
ASUS43 KTOP 240859
RWRKS

WEATHER ROUNDUP FOR KANSAS
NATIONAL WEATHER SERVICE GOODLAND KS
400 AM CDT MON APR 24 2017

NOTE:  "FAIR" INDICATES FEW OR NO CLOUDS BELOW 12,000 FEET WITH NO
SIGNIFICANT WEATHER AND/OR OBSTRUCTIONS TO VISIBILITY.

KSZ001>006-013>018-027>032-041>047-241000-
NORTHWEST KANSAS

CITY           SKY/WX    TMP DP  RH WIND       PRES   REMARKS
GOODLAND       CLOUDY    51  38  60 S21       29.55F
HAYS           CLOUDY    53  35  50 S23G29    29.71F
HILL CITY      CLOUDY    53  37  54 S13       29.67F
RUSSELL        CLOUDY    52  36  54 S28G35    29.72F
$$

KSZ061>065-074>080-084>089-241000-
SOUTHWEST KANSAS

CITY           SKY/WX    TMP DP  RH WIND       PRES   REMARKS
DODGE CITY     CLOUDY    50  36  58 S21       29.76F
ELKHART          N/A     53  34  48 S18         N/A
GARDEN CITY    CLOUDY    50  34  54 S17G28    29.69F
GREAT BEND     CLOUDY    53  36  52 S20G28    29.77F
$$

KSZ066>073-081>083-090>101-241000-
SOUTHEAST KANSAS

CITY           SKY/WX    TMP DP  RH WIND       PRES   REMARKS
CHANUTE        CLEAR     43  41  93 SE6       29.93F
COFFEYVILLE    CLEAR     42  41  96 CALM      29.94F
HUTCHINSON     CLEAR     49  38  65 SE12      29.85F
MEDICINE LODGE   N/A     48  38  68 S12       29.85F
NEWTON         CLEAR     48  39  71 S14       29.87F
PARSONS        CLEAR     42  40  92 E3        29.95F
WICHITA INTL   CLEAR     47  40  76 S13       29.87F
WICHITA JABRA  CLEAR     48  39  71 S14       29.87F
WINFIELD       CLEAR     45  39  79 CALM      29.93R
$$

KSZ007>012-019>026-033>040-048>060-102>105-241000-
NORTHEAST KANSAS

CITY           SKY/WX    TMP DP  RH WIND       PRES   REMARKS
CONCORDIA      CLOUDY    51  38  60 S16G24    29.79F
EMPORIA        CLEAR     45  40  82 S7        29.90F
LAWRENCE       CLOUDY    43  39  86 SE3       29.92S
MANHATTAN      CLOUDY    51  39  63 S5        29.87F
OLATHE IND     CLOUDY    44  37  76 S6        29.94S
OLATHE EXE     CLOUDY    46  39  76 S3        29.93S
SALINA         CLOUDY    52  38  58 S12       29.83F
TOPEKA BILLARD PTCLDY    49  40  71 E3        29.90F
TOPEKA FORBES  CLOUDY    49  39  68 SE10      29.89F
$$




USA.gov is the U.S. government's official web portal to all federal, state and local government web resources and services.